[[{"header":{"parameterUnit":"m.s-1","parameterCategory":1,"la1":30.2991,"la2":30.254,"lo1":-89.0895,"lo2":-89.0444,"dy":0.0017,"dx":0.0017,"nx":28,"ny":28,"refTime":"2023-08-03T09:00:00:Z","depth":0,"parameterNumber":2,"parameterNumberName":"U-component_of_WINDS"},"data":[0,0,0,0,0,0,0,0,0,0,0,0,0,0,0,0,0,0,0,0,0,0,0,0,0,0,0,0,0,0,0,0,0,0,0,0,0,0,0,0,0,0,0,0,0,0,0,0,0,0,0,0,0,0,0,0,0,0,-0.0679,-0.0678,0,-0.0613,-0.0612,-0.0611,-0.0559,-0.0559,-0.0558,-0.0558,-0.0487,-0.0486,-0.0485,0,0,0,0,0,0,0,0,0,0,0,0,0,-0.0758,-0.0756,-0.0679,-0.0678,-0.0677,-0.0613,-0.0612,-0.0611,-0.0559,-0.0559,-0.0558,-0.0558,-0.0488,-0.0486,-0.0484,0,0,0,0,0,0,0,0,0,0,0,0,0,-0.0711,-0.0756,-0.0679,-0.0644,-0.064,-0.0613,-0.0612,-0.0611,-0.056,-0.0559,-0.0558,-0.0557,-0.0488,-0.0486,-0.0484,-0.0486,0,0,-0.0478,-0.0477,0,0,0,0,0,0,0,0,-0.0713,-0.0708,-0.065,-0.0646,-0.0642,-0.0594,-0.0614,-0.0569,-0.056,-0.059,-0.0558,-0.0557,-0.0523,-0.0518,-0.0507,-0.0482,-0.0479,-0.0478,-0.0476,-0.0475,-0.0475,0,0,0,0,0,0,0,-0.0717,-0.071,-0.0652,-0.0649,-0.0644,-0.063,-0.0623,-0.0605,-0.0561,-0.0587,-0.0583,-0.0576,-0.0521,-0.0509,-0.0505,-0.0478,-0.0478,-0.0476,-0.0474,-0.0474,-0.045,-0.0451,0,0,0,0,0,0,-0.0726,-0.0713,-0.0655,-0.065,-0.0677,-0.0629,-0.0621,-0.061,-0.0561,-0.0553,-0.0577,-0.0574,-0.0513,-0.0508,-0.0502,-0.05,-0.0475,-0.0473,-0.0472,-0.045,-0.045,-0.0451,0,0,0,0,0,0,-0.0728,-0.0721,-0.0657,-0.0681,-0.0672,-0.0629,-0.0617,-0.0609,-0.0597,-0.0554,-0.0545,-0.0574,-0.0513,-0.0505,-0.049,-0.0497,-0.0472,-0.047,-0.0449,-0.045,-0.0451,-0.0497,0,0,0,0,0,0,-0.073,-0.0722,-0.0723,-0.0681,-0.0671,-0.0647,-0.0617,-0.0608,-0.0594,-0.059,-0.0548,-0.0541,-0.0511,-0.0494,-0.0488,-0.0494,-0.0469,-0.0448,-0.0449,-0.045,-0.0495,-0.05,-0.0504,0,0,0,0,0,-0.0733,-0.0738,-0.0723,-0.0717,-0.0671,-0.0648,-0.0642,-0.0609,-0.0595,-0.0595,-0.0567,-0.0542,-0.0498,-0.0493,-0.0486,-0.0491,-0.0447,-0.0449,-0.045,-0.0493,-0.0499,-0.0504,0,0,0,0,0,0,-0.0781,-0.0732,-0.0715,-0.0707,-0.0682,-0.0639,-0.0638,-0.0616,-0.0594,-0.059,-0.0549,-0.054,-0.0529,-0.0509,-0.0504,-0.0489,-0.0469,-0.0469,-0.0504,-0.0509,-0.0513,-0.0518,-0.0467,0,0,0,0,0,-0.0791,-0.0777,-0.0735,-0.0732,-0.072,-0.0682,-0.067,-0.0647,-0.0619,-0.0608,-0.0579,-0.0552,-0.0531,-0.0519,-0.0498,-0.0491,-0.0481,-0.0491,-0.0496,-0.05,-0.05,-0.0494,-0.0498,-0.0456,-0.0456,-0.0456,0,0,-0.0811,-0.0783,-0.0776,-0.0741,-0.0719,-0.0704,-0.0673,-0.0659,-0.0648,-0.0605,-0.059,-0.0567,-0.0534,-0.0523,-0.0517,-0.0505,-0.051,-0.0502,-0.0505,-0.0504,-0.0496,-0.05,-0.0504,-0.0457,-0.0457,-0.0457,0,0,-0.084,-0.0818,-0.0812,-0.0791,-0.0758,-0.0732,-0.0731,-0.0691,-0.0675,-0.0658,-0.0626,-0.0611,-0.0577,-0.0555,-0.0539,-0.0559,-0.0535,-0.0553,-0.0576,-0.0571,-0.0574,-0.0577,-0.0583,-0.0586,-0.0554,-0.0554,-0.0554,0,-0.0869,-0.0847,-0.0812,-0.08,-0.0785,-0.0747,-0.074,-0.0721,-0.0683,-0.0672,-0.066,-0.0617,-0.0592,-0.0575,-0.058,-0.0568,-0.0565,-0.0558,-0.0577,-0.0579,-0.0581,-0.0587,-0.0589,-0.0556,-0.0556,-0.0556,-0.0555,0,-0.0883,-0.0869,-0.0868,-0.0833,-0.0817,-0.0808,-0.0771,-0.076,-0.0738,-0.0713,-0.0696,-0.0664,-0.0636,-0.063,-0.0608,-0.0609,-0.0603,-0.0585,-0.0563,-0.0588,-0.0593,-0.0595,-0.056,-0.0559,-0.0558,-0.0558,0,0,-0.0941,-0.0887,-0.0887,-0.087,-0.0831,-0.0818,-0.0807,-0.078,-0.077,-0.0745,-0.0733,-0.0705,-0.0688,-0.067,-0.0645,-0.064,-0.0657,-0.0622,-0.062,-0.0629,-0.0655,-0.067,-0.0673,-0.0641,-0.0641,-0.0641,-0.0658,0,-0.0964,-0.0942,-0.091,-0.0899,-0.0884,-0.0847,-0.0837,-0.0811,-0.0787,-0.077,-0.0743,-0.0724,-0.0703,-0.0691,-0.0685,-0.0656,-0.0661,-0.0654,-0.0629,-0.0628,-0.0638,-0.0675,-0.069,-0.0708,-0.066,-0.066,-0.066,0,-0.0987,-0.0965,-0.0952,-0.0913,-0.0906,-0.0897,-0.087,-0.0854,-0.0823,-0.0806,-0.0786,-0.0759,-0.0744,-0.0725,-0.0702,-0.0699,-0.0686,-0.067,-0.067,-0.0666,-0.0646,-0.0672,-0.0713,-0.0715,-0.0663,-0.0662,-0.0662,0,-0.103,-0.0996,-0.0984,-0.0971,-0.0925,-0.092,-0.0901,-0.0869,-0.0855,-0.083,-0.082,-0.0794,-0.0779,-0.0759,-0.0725,-0.0714,-0.0706,-0.0684,-0.0691,-0.0692,-0.069,-0.0691,-0.073,-0.0683,-0.0683,-0.0683,-0.0683,0,-0.1058,-0.1052,-0.1003,-0.0996,-0.0987,-0.095,-0.0942,-0.0919,-0.0891,-0.0877,-0.0843,-0.0831,-0.0787,-0.0769,-0.0742,-0.0728,-0.0721,-0.0706,-0.0699,-0.0709,-0.0711,-0.07,-0.0698,-0.0684,-0.0683,-0.0683,-0.0683,0,-0.1105,-0.1072,-0.1056,-0.1014,-0.1004,-0.0999,-0.0963,-0.0953,-0.0927,-0.0911,-0.0904,-0.0863,-0.0841,-0.0805,-0.0771,-0.0753,-0.0743,-0.0731,-0.0754,-0.0749,-0.0757,-0.0757,-0.079,-0.0792,-0.0745,-0.0745,-0.0746,0,-0.1125,-0.112,-0.1077,-0.1066,-0.1048,-0.1031,-0.1016,-0.0979,-0.0964,-0.0929,-0.0923,-0.0898,-0.0876,-0.0841,-0.0808,-0.0782,-0.0769,-0.0782,-0.0765,-0.0775,-0.0768,-0.0769,-0.0768,-0.0786,-0.0787,-0.0787,-0.0788,0,-0.1164,-0.1148,-0.1129,-0.1103,-0.1087,-0.1065,-0.1041,-0.1033,-0.099,-0.0976,-0.0953,-0.0936,-0.0902,-0.0877,-0.0846,-0.0824,-0.0799,-0.0794,-0.0794,-0.0804,-0.0817,-0.081,-0.0764,-0.0793,-0.0793,-0.0792,-0.0792,-0.0792,-0.1198,-0.1191,-0.116,-0.1139,-0.1117,-0.1096,-0.1085,-0.1058,-0.1038,-0.1008,-0.0987,-0.0965,-0.0933,-0.0889,-0.0869,-0.085,-0.0839,-0.0839,-0.0839,-0.0839,-0.0843,-0.082,-0.0844,-0.0844,-0.0844,-0.0844,-0.0843,0,-0.1235,-0.1213,-0.1194,-0.1162,-0.1146,-0.1124,-0.1096,-0.1083,-0.1065,-0.1037,-0.1017,-0.0989,-0.0965,-0.0929,-0.0902,-0.0894,-0.0881,-0.0888,-0.0888,-0.0883,-0.0855,-0.0857,-0.0898,-0.0898,-0.0898,-0.0898,-0.0898,-0.0898,-0.1252,-0.1239,-0.1219,-0.1194,-0.1172,-0.1151,-0.1137,-0.1116,-0.1094,-0.1066,-0.1046,-0.1023,-0.0992,-0.0962,-0.0938,-0.0928,-0.0919,-0.0929,-0.0916,-0.089,-0.0885,-0.088,-0.0882,-0.0928,-0.0928,-0.0945,-0.0945,-0.0945]},{"header":{"parameterUnit":"m.s-1","parameterCategory":1,"la1":30.2991,"la2":30.254,"lo1":-89.0895,"lo2":-89.0444,"dy":0.0017,"dx":0.0017,"nx":28,"ny":28,"refTime":"2023-08-03T09:00:00:Z","depth":0,"parameterNumber":3,"parameterNumberName":"V-component_of_WINDS"},"data":[0,0,0,0,0,0,0,0,0,0,0,0,0,0,0,0,0,0,0,0,0,0,0,0,0,0,0,0,0,0,0,0,0,0,0,0,0,0,0,0,0,0,0,0,0,0,0,0,0,0,0,0,0,0,0,0,0,0,1.4232,1.4232,0,1.4243,1.4243,1.4243,1.426,1.4261,1.4261,1.4261,1.4269,1.4269,1.4269,0,0,0,0,0,0,0,0,0,0,0,0,0,1.4222,1.4222,1.4232,1.4232,1.4233,1.4243,1.4243,1.4243,1.426,1.4261,1.4261,1.4261,1.4269,1.4269,1.4269,0,0,0,0,0,0,0,0,0,0,0,0,0,1.4229,1.4222,1.4232,1.4242,1.4243,1.4243,1.4243,1.4243,1.426,1.4261,1.4261,1.4261,1.4269,1.4269,1.4269,1.4258,0,0,1.4269,1.4269,0,0,0,0,0,0,0,0,1.4228,1.4229,1.4241,1.4242,1.4243,1.4251,1.4242,1.4248,1.426,1.4254,1.4261,1.4262,1.4262,1.4263,1.4264,1.4259,1.4259,1.4269,1.4269,1.4269,1.4268,0,0,0,0,0,0,0,1.4228,1.4229,1.4236,1.4241,1.4242,1.4245,1.4246,1.4243,1.4255,1.4254,1.4256,1.4257,1.4263,1.4264,1.4264,1.4259,1.4269,1.4269,1.4268,1.4268,1.4242,1.4242,0,0,0,0,0,0,1.4227,1.4228,1.4236,1.4237,1.4237,1.4244,1.4246,1.4248,1.4255,1.4257,1.4256,1.4257,1.4264,1.4264,1.4264,1.425,1.4269,1.4268,1.4268,1.4243,1.4242,1.4241,0,0,0,0,0,0,1.4226,1.4227,1.4236,1.4233,1.4234,1.4244,1.4246,1.4248,1.4248,1.4257,1.4259,1.4255,1.4264,1.4265,1.4259,1.4251,1.4268,1.4268,1.4244,1.4243,1.4242,1.4223,0,0,0,0,0,0,1.4226,1.4227,1.4225,1.4233,1.4234,1.4232,1.4245,1.4247,1.4248,1.425,1.4256,1.4258,1.4265,1.4259,1.4259,1.4251,1.4268,1.4244,1.4243,1.4242,1.4224,1.4222,1.4219,0,0,0,0,0,1.4226,1.4219,1.4224,1.4225,1.4232,1.4231,1.4232,1.4241,1.4248,1.4244,1.4249,1.4257,1.4252,1.4259,1.4258,1.425,1.4245,1.4243,1.4242,1.4226,1.4222,1.4219,0,0,0,0,0,0,1.421,1.4221,1.4226,1.4223,1.4226,1.4234,1.423,1.4237,1.4238,1.424,1.425,1.4251,1.4243,1.4246,1.4254,1.4238,1.4249,1.4248,1.4237,1.4234,1.4231,1.423,1.4268,0,0,0,0,0,1.4206,1.4206,1.4215,1.421,1.4212,1.422,1.4221,1.4227,1.423,1.4232,1.4236,1.4238,1.4236,1.4235,1.4235,1.4225,1.4225,1.4219,1.4216,1.4214,1.4212,1.4204,1.42,1.4237,1.4237,1.4237,0,0,1.4198,1.4204,1.4203,1.4207,1.4211,1.4208,1.4222,1.422,1.4218,1.4231,1.4226,1.4229,1.4232,1.4223,1.422,1.4225,1.4202,1.4212,1.421,1.421,1.4202,1.4199,1.4196,1.4236,1.4236,1.4236,0,0,1.4182,1.4187,1.4183,1.4185,1.419,1.4195,1.4194,1.42,1.4203,1.4198,1.4207,1.4204,1.4201,1.4202,1.4202,1.4182,1.4189,1.4181,1.4167,1.4159,1.4156,1.4154,1.4144,1.4141,1.418,1.418,1.418,0,1.4171,1.417,1.418,1.4176,1.4177,1.4188,1.4182,1.4184,1.4188,1.4187,1.4193,1.4188,1.4191,1.4181,1.4176,1.4176,1.4173,1.4181,1.4156,1.4154,1.4151,1.4142,1.4139,1.4179,1.4179,1.4179,1.4179,0,1.4155,1.4154,1.4149,1.4152,1.4152,1.4147,1.4154,1.4152,1.4158,1.4161,1.4154,1.4157,1.4156,1.4154,1.416,1.4144,1.4147,1.4155,1.4166,1.4147,1.4138,1.4135,1.4177,1.4177,1.4178,1.4178,0,0,1.4132,1.4138,1.4136,1.4136,1.414,1.4138,1.4132,1.4131,1.4128,1.4129,1.4123,1.4119,1.4125,1.4125,1.413,1.4123,1.4103,1.4131,1.4131,1.4124,1.4083,1.4076,1.4072,1.4108,1.4107,1.4107,1.4082,0,1.4116,1.4108,1.4115,1.4105,1.4102,1.4111,1.4105,1.4106,1.4108,1.4105,1.4107,1.4103,1.4113,1.4112,1.4105,1.4107,1.4095,1.4109,1.41,1.41,1.4098,1.4068,1.4062,1.4038,1.4079,1.4078,1.4078,0,1.4097,1.4097,1.4086,1.4087,1.4086,1.4082,1.4079,1.4076,1.4075,1.4077,1.4075,1.4081,1.4073,1.4084,1.4071,1.4081,1.4077,1.4077,1.4076,1.4075,1.4087,1.4065,1.4031,1.4027,1.4073,1.4074,1.4074,0,1.4079,1.4075,1.4068,1.4068,1.407,1.4065,1.4066,1.4066,1.4063,1.406,1.4058,1.4054,1.4052,1.4047,1.4051,1.4059,1.4036,1.4049,1.4036,1.4036,1.4031,1.4031,1.3995,1.403,1.403,1.4031,1.4031,0,1.406,1.4053,1.4059,1.4055,1.4045,1.4052,1.4042,1.4043,1.4042,1.4036,1.4043,1.4037,1.4042,1.4036,1.4038,1.4026,1.4025,1.4025,1.4025,1.4023,1.4023,1.402,1.4022,1.403,1.403,1.403,1.403,0,1.4039,1.4043,1.4035,1.4036,1.4036,1.4029,1.403,1.4024,1.4026,1.4017,1.4016,1.4018,1.401,1.4013,1.4005,1.4006,1.399,1.3993,1.399,1.399,1.3977,1.3977,1.3937,1.3931,1.3972,1.3971,1.3971,0,1.4026,1.4021,1.4021,1.4017,1.4017,1.4011,1.4008,1.4013,1.4009,1.4006,1.3999,1.3992,1.3987,1.3973,1.3973,1.3966,1.3968,1.3954,1.3967,1.3964,1.3965,1.3965,1.3963,1.3952,1.3951,1.3951,1.395,0,1.4003,1.4004,1.4,1.3995,1.3991,1.3988,1.3985,1.3981,1.3985,1.398,1.3972,1.3967,1.3957,1.3949,1.3942,1.394,1.3945,1.3946,1.3942,1.394,1.3938,1.3936,1.3981,1.3947,1.3948,1.3948,1.3948,1.3948,1.3985,1.3979,1.3977,1.3971,1.3968,1.3964,1.3958,1.3958,1.3952,1.3944,1.3947,1.3937,1.3932,1.3923,1.392,1.391,1.3915,1.3911,1.3909,1.3907,1.3905,1.394,1.3909,1.3909,1.3909,1.3909,1.3909,0,1.396,1.3959,1.3953,1.3948,1.3942,1.3947,1.3942,1.3937,1.3928,1.3923,1.3917,1.3905,1.3896,1.3894,1.3885,1.3877,1.3879,1.3874,1.3874,1.3873,1.3902,1.3905,1.3873,1.3873,1.3873,1.3873,1.3873,1.3873,1.3947,1.3936,1.3936,1.3923,1.3921,1.3911,1.3908,1.3903,1.3899,1.3886,1.3878,1.3877,1.3872,1.3862,1.3852,1.3852,1.3847,1.3841,1.3841,1.3868,1.3872,1.3875,1.3878,1.384,1.384,1.3813,1.3812,1.3812]}]]